TimeCST,TemperatureF,Dew PointF,Humidity,Sea Level PressureIn,VisibilityMPH,Wind Direction,Wind SpeedMPH,Gust SpeedMPH,PrecipitationIn,Events,Conditions,WindDirDegrees,DateUTC
12:23 AM,59.0,53.6,82,29.82,7.0,SSW,15.0,23.0,N/A,,Overcast,210,2013-01-28 06:23:00
12:53 AM,57.9,53.1,84,29.82,10.0,SSW,10.4,-,N/A,,Overcast,210,2013-01-28 06:53:00
1:32 AM,51.8,48.2,88,29.83,3.0,NW,8.1,-,N/A,,Overcast,310,2013-01-28 07:32:00
1:53 AM,50.0,48.0,93,29.83,4.0,NW,6.9,-,0.00,,Light Drizzle,310,2013-01-28 07:53:00
2:53 AM,48.0,46.0,93,29.84,4.0,North,3.5,-,0.00,,Light Drizzle,360,2013-01-28 08:53:00
3:29 AM,48.2,46.4,93,29.84,3.0,NNE,3.5,-,0.00,,Light Drizzle,20,2013-01-28 09:29:00
3:53 AM,48.0,46.0,93,29.83,4.0,ENE,3.5,-,0.00,,Light Drizzle,60,2013-01-28 09:53:00
4:03 AM,48.2,46.4,93,29.84,2.5,NE,4.6,-,0.00,,Light Drizzle,40,2013-01-28 10:03:00
4:53 AM,48.0,46.0,93,29.83,2.5,ENE,4.6,-,0.00,,Light Drizzle,60,2013-01-28 10:53:00
5:01 AM,48.2,46.4,93,29.84,0.5,NE,5.8,-,0.00,,Light Drizzle,40,2013-01-28 11:01:00
5:08 AM,48.2,44.6,87,29.83,0.2,NNE,5.8,-,0.00,,Light Drizzle,30,2013-01-28 11:08:00
5:53 AM,46.9,45.0,93,29.83,0.2,ENE,4.6,-,0.00,,Overcast,60,2013-01-28 11:53:00
6:26 AM,46.4,44.6,93,29.84,0.2,NE,6.9,-,N/A,,Overcast,50,2013-01-28 12:26:00
6:35 AM,46.4,44.6,93,29.84,0.2,NE,5.8,-,N/A,,Overcast,40,2013-01-28 12:35:00
6:53 AM,46.9,45.0,93,29.85,0.2,ENE,6.9,-,N/A,,Overcast,60,2013-01-28 12:53:00
7:53 AM,46.9,45.0,93,29.86,0.2,ENE,5.8,-,N/A,,Overcast,60,2013-01-28 13:53:00
8:09 AM,48.2,46.4,93,29.86,1.5,ENE,4.6,-,N/A,,Overcast,60,2013-01-28 14:09:00
8:33 AM,48.2,46.4,93,29.86,2.5,ENE,3.5,-,N/A,,Overcast,70,2013-01-28 14:33:00
8:51 AM,50.0,46.4,87,29.86,3.0,East,5.8,-,N/A,,Overcast,100,2013-01-28 14:51:00
8:53 AM,50.0,46.9,89,29.85,3.0,East,5.8,-,N/A,,Overcast,100,2013-01-28 14:53:00
9:53 AM,59.0,54.0,83,29.83,3.0,South,10.4,-,N/A,,Haze,180,2013-01-28 15:53:00
10:53 AM,64.0,53.1,67,29.82,10.0,South,9.2,-,N/A,,Mostly Cloudy,180,2013-01-28 16:53:00
11:11 AM,64.4,53.6,68,29.83,10.0,South,11.5,-,N/A,,Mostly Cloudy,180,2013-01-28 17:11:00
11:53 AM,66.9,53.1,61,29.80,10.0,SSW,20.7,26.5,N/A,,Mostly Cloudy,210,2013-01-28 17:53:00
12:53 PM,71.1,52.0,51,29.75,10.0,SSW,16.1,-,N/A,,Mostly Cloudy,200,2013-01-28 18:53:00
1:53 PM,73.9,52.0,46,29.71,10.0,South,23.0,28.8,N/A,,Mostly Cloudy,190,2013-01-28 19:53:00
2:53 PM,73.0,53.1,49,29.70,10.0,South,20.7,29.9,N/A,,Mostly Cloudy,190,2013-01-28 20:53:00
3:53 PM,72.0,54.0,53,29.70,10.0,SSW,19.6,32.2,N/A,,Mostly Cloudy,200,2013-01-28 21:53:00
4:53 PM,72.0,55.0,55,29.68,10.0,South,18.4,26.5,N/A,,Overcast,190,2013-01-28 22:53:00
5:53 PM,69.1,57.0,65,29.67,10.0,South,19.6,26.5,N/A,,Overcast,180,2013-01-28 23:53:00
6:53 PM,69.1,57.0,65,29.67,10.0,South,18.4,25.3,N/A,,Mostly Cloudy,180,2013-01-29 00:53:00
7:53 PM,68.0,57.0,68,29.67,10.0,South,21.9,33.4,N/A,,Mostly Cloudy,180,2013-01-29 01:53:00
8:53 PM,66.9,57.9,73,29.66,10.0,South,23.0,34.5,N/A,,Mostly Cloudy,190,2013-01-29 02:53:00
9:53 PM,66.9,57.9,73,29.65,10.0,SSW,25.3,39.1,N/A,,Mostly Cloudy,200,2013-01-29 03:53:00
10:53 PM,66.9,59.0,76,29.64,10.0,SSW,23.0,35.7,N/A,,Mostly Cloudy,200,2013-01-29 04:53:00
11:53 PM,66.9,59.0,76,29.62,10.0,South,23.0,33.4,N/A,,Overcast,190,2013-01-29 05:53:00